Tracking 29892 objects as of 21-Nov-2024
HD Live streaming from Space Station
objects crossing your sky now

STARLINK-1073

Track STARLINK-1073 now!
10-day predictions
STARLINK-1073 is classified as:


NORAD ID: 44914
Int'l Code: 2020-001A
Perigee: 465.0 km
Apogee: 466.9 km
Inclination: 53.1 °
Period: 93.8 minutes
Semi major axis: 6836 km
RCS: Unknown
Launch date: January 7, 2020
Source: United States (US)
Launch site: AIR FORCE EASTERN TEST RANGE (AFETR)
Your satellite tracking list
Your tracking list is empty




NASA's NSSDC Master Catalog

Two Line Element Set (TLE):
1 44914U 20001A   24326.25001157  .01210036  00000-0  31580-1 0  9994
2 44914  53.0531 310.6316 0001419  98.4191 311.8598 15.35705911268501
Source of the keplerian elements: AFSPC